Weather History for Lincoln, NE

Change the Weather History Date:

Monday, May 6, 2013

  Actual Average Record
Temperature  
Mean Temperature 58 °F 59 °F  
Max Temperature 68 °F 71 °F 95 °F (1955)
Min Temperature 47 °F 47 °F 27 °F (1944)
Degree Days  
Heating Degree Days 7 7  
Month to date heating degree days 113 47  
Since 1 July heating degree days 6234 5940  
Cooling Degree Days 0 1  
Month to date cooling degree days 0 6  
Year to date cooling degree days 4 20  
Growing Degree Days 6 (Base 50)    
Moisture  
Dew Point 46 °F    
Average Humidity 71    
Maximum Humidity 93    
Minimum Humidity 48    
Precipitation  
Precipitation 0.00 in 0.14 in 1.46 in (2007)
Month to date precipitation 1.26 0.79  
Year to date precipitation 8.67 6.84  
Snow  
Snow 0.00 in 0.00 in - ()
Month to date snowfall 2.7 0.1  
Since 1 July snowfall 27.5 26.0  
Snow Depth 0.00 in    
Sea Level Pressure  
Sea Level Pressure 30.13 in    
Wind  
Wind Speed 4 mph (North)    
Max Wind Speed 12 mph    
Max Gust Speed 15 mph    
Visibility 10 miles    
Events      
T = Trace of Precipitation, MM = Missing Value Source: NWS Daily Summary

Daily Weather History Graph

Daily Weather History Graph

Search for Another Location

Airport:

Trip Planner

Search our weather history database for the weather conditions in past years. The results will help you decide how hot, cold, wet, or windy it might be!

Date:

Astronomy

May. 06, 2013 Rise Set
Actual Time 6:18 AM CDT 8:29 PM CDT
Civil Twilight 5:48 AM CDT 8:59 PM CDT
Nautical Twilight 5:11 AM CDT 9:36 PM CDT
Astronomical Twilight 4:30 AM CDT 10:17 PM CDT
Moon 4:22 AM CDT (5/6) 5:29 PM CDT (5/6)
Length of Visible Light 15h 10m
Length of Day
14h 10m
Waning Crescent, 11% of the Moon is Illuminated
May 6
Waning Crescent
May 9
New
May 17
First Quarter
May 24
Full
May 31
Last Quarter

Hourly Weather History & Observations

Time (CDT) Temp. Dew Point Humidity Pressure Visibility Wind Dir Wind Speed Gust Speed Precip Events Conditions
12:42 AM 50.0 °F 44.6 °F 82% 30.15 in 10.0 mi NNW 5.8 mph - N/A   Overcast
12:54 AM 50.0 °F 45.0 °F 83% 30.16 in 10.0 mi North 5.8 mph - N/A   Overcast
1:54 AM 48.9 °F 45.0 °F 86% 30.14 in 10.0 mi North 6.9 mph - N/A   Overcast
2:54 AM 48.9 °F 46.0 °F 90% 30.14 in 10.0 mi North 4.6 mph - N/A   Overcast
3:08 AM 48.2 °F 46.4 °F 93% 30.13 in 10.0 mi North 5.8 mph - N/A   Overcast
3:54 AM 48.9 °F 46.0 °F 90% 30.14 in 9.0 mi North 5.8 mph - N/A   Overcast
4:54 AM 48.0 °F 45.0 °F 89% 30.15 in 9.0 mi North 5.8 mph - N/A   Overcast
5:54 AM 48.0 °F 45.0 °F 89% 30.16 in 9.0 mi North 5.8 mph - N/A   Overcast
6:54 AM 46.9 °F 44.1 °F 90% 30.16 in 9.0 mi North 5.8 mph - N/A   Overcast
7:23 AM 48.2 °F 44.6 °F 87% 30.16 in 9.0 mi NNW 8.1 mph - N/A   Overcast
7:54 AM 48.0 °F 44.1 °F 86% 30.17 in 10.0 mi North 8.1 mph - N/A   Overcast
8:54 AM 48.9 °F 44.1 °F 83% 30.18 in 10.0 mi North 9.2 mph - N/A   Overcast
9:54 AM 50.0 °F 44.1 °F 80% 30.19 in 10.0 mi NNE 8.1 mph - N/A   Overcast
10:54 AM 51.1 °F 44.1 °F 77% 30.19 in 10.0 mi North 9.2 mph - N/A   Overcast
11:54 AM 53.1 °F 45.0 °F 74% 30.18 in 10.0 mi North 5.8 mph - N/A   Scattered Clouds
12:54 PM 59.0 °F 46.9 °F 64% 30.15 in 10.0 mi NNE 9.2 mph - N/A   Clear
1:54 PM 62.1 °F 46.9 °F 58% 30.13 in 10.0 mi NNE 5.8 mph - N/A   Clear
2:54 PM 66.0 °F 46.9 °F 50% 30.10 in 10.0 mi ENE 3.5 mph - N/A   Clear
3:54 PM 66.9 °F 48.0 °F 51% 30.08 in 10.0 mi Calm Calm - N/A   Clear
4:54 PM 66.9 °F 48.0 °F 51% 30.05 in 10.0 mi SSW 4.6 mph - N/A   Clear
5:54 PM 66.9 °F 46.9 °F 49% 30.04 in 10.0 mi Calm Calm - N/A   Clear
6:54 PM 66.0 °F 46.9 °F 50% 30.04 in 10.0 mi Calm Calm - N/A   Clear
7:54 PM 66.0 °F 46.9 °F 50% 30.05 in 10.0 mi Calm Calm - N/A   Mostly Cloudy
8:54 PM 64.0 °F 46.9 °F 54% 30.06 in 10.0 mi ESE 3.5 mph - N/A   Partly Cloudy
9:54 PM 59.0 °F 48.0 °F 67% 30.08 in 10.0 mi Calm Calm - N/A   Clear
10:54 PM 52.0 °F 46.0 °F 80% 30.09 in 10.0 mi Calm Calm - N/A   Clear
11:54 PM 48.0 °F 43.0 °F 83% 30.09 in 10.0 mi Calm Calm - N/A   Clear